RYR40JE LPPR-GMTT

Flight info

Callsign RYR40JE
Flight time 1h 6m
Altitude 37000
Route MANIK DCT ORTOP DCT BAMBA UN726 TNR UM240 MADOV
Aircraft B738/M-SDE2E3FGHIRWXY/LB1

Departure

Time 2026-04-25 21:43
Airport Francisco de Sá Carneiro Airport (LPPR)

Arrival

Time 2026-04-25 22:49
Airport Tangier Ibn Battuta Airport (GMTT)
Time Latitude Longitude Altitude Speed Heading
2026-04-25 20:53 41.23774 -8.67296 234 ft 0 kts 48°
2026-04-25 21:29 41.23772 -8.67300 234 ft 2 kts 49°
2026-04-25 21:30 41.23762 -8.67314 234 ft 2 kts 48°
2026-04-25 21:30 41.23752 -8.67329 234 ft 2 kts 48°
2026-04-25 21:30 41.23742 -8.67344 234 ft 2 kts 48°
2026-04-25 21:30 41.23736 -8.67354 234 ft 2 kts 48°
2026-04-25 21:31 41.23723 -8.67375 234 ft 2 kts 66°
2026-04-25 21:31 41.23721 -8.67394 234 ft 2 kts 105°
2026-04-25 21:31 41.23725 -8.67406 234 ft 1 kts 128°
2026-04-25 21:31 41.23729 -8.67412 234 ft 0 kts 130°
2026-04-25 21:35 41.23714 -8.67385 234 ft 7 kts 124°
2026-04-25 21:36 41.23650 -8.67335 234 ft 12 kts 168°
2026-04-25 21:36 41.23569 -8.67351 234 ft 10 kts 212°
2026-04-25 21:36 41.23505 -8.67388 234 ft 8 kts 184°
2026-04-25 21:36 41.23455 -8.67379 234 ft 6 kts 169°
2026-04-25 21:37 41.23410 -8.67369 234 ft 6 kts 170°
2026-04-25 21:37 41.23381 -8.67365 234 ft 6 kts 182°
2026-04-25 21:37 41.23339 -8.67403 234 ft 0 kts 249°
2026-04-25 21:38 41.23338 -8.67404 234 ft 1 kts 249°
2026-04-25 21:38 41.23331 -8.67439 234 ft 4 kts 256°
2026-04-25 21:38 41.23326 -8.67471 234 ft 2 kts 259°
2026-04-25 21:39 41.23323 -8.67492 234 ft 1 kts 259°
2026-04-25 21:39 41.23322 -8.67500 234 ft 0 kts 259°
2026-04-25 21:40 41.23317 -8.67539 234 ft 7 kts 259°
2026-04-25 21:40 41.23309 -8.67600 234 ft 6 kts 260°
2026-04-25 21:41 41.23301 -8.67656 234 ft 5 kts 258°
2026-04-25 21:41 41.23294 -8.67705 234 ft 4 kts 272°
2026-04-25 21:41 41.23311 -8.67733 234 ft 3 kts 336°
2026-04-25 21:41 41.23318 -8.67735 234 ft 0 kts 350°
2026-04-25 21:42 41.23454 -8.67771 234 ft 52 kts 349°
2026-04-25 21:42 41.24022 -8.67921 234 ft 111 kts 348°
2026-04-25 21:42 41.24958 -8.68169 235 ft 160 kts 348°
2026-04-25 21:43 41.26078 -8.68448 728 ft 162 kts 350°
2026-04-25 21:43 41.27146 -8.68691 1356 ft 160 kts 351°
2026-04-25 21:43 41.28245 -8.68978 1958 ft 159 kts 350°
2026-04-25 21:43 41.29328 -8.69293 2427 ft 162 kts 350°
2026-04-25 21:44 41.30431 -8.69594 2907 ft 164 kts 350°
2026-04-25 21:44 41.31563 -8.69897 3388 ft 165 kts 350°
2026-04-25 21:44 41.33964 -8.70539 4064 ft 188 kts 351°
2026-04-25 21:45 41.35296 -8.70891 4330 ft 204 kts 351°
2026-04-25 21:45 41.36267 -8.71147 4502 ft 217 kts 350°
2026-04-25 21:45 41.38316 -8.71688 5163 ft 228 kts 350°
2026-04-25 21:45 41.39857 -8.72325 5709 ft 236 kts 334°
2026-04-25 21:46 41.41132 -8.73699 6263 ft 243 kts 306°
2026-04-25 21:46 41.41793 -8.75782 6692 ft 254 kts 277°
2026-04-25 21:46 41.41710 -8.78206 7107 ft 266 kts 258°
2026-04-25 21:46 41.41037 -8.80527 7448 ft 279 kts 234°
2026-04-25 21:47 41.39675 -8.82398 8106 ft 286 kts 214°
2026-04-25 21:47 41.37941 -8.83697 8960 ft 287 kts 202°
2026-04-25 21:47 41.36065 -8.84473 9765 ft 288 kts 186°
2026-04-25 21:47 41.34063 -8.84378 10492 ft 292 kts 171°
2026-04-25 21:48 41.31966 -8.84324 10897 ft 310 kts 188°
2026-04-25 21:48 41.29817 -8.85023 11349 ft 326 kts 196°
2026-04-25 21:48 41.27611 -8.85989 11763 ft 342 kts 198°
2026-04-25 21:48 41.25351 -8.87034 12320 ft 352 kts 199°
2026-04-25 21:49 41.23008 -8.88121 12989 ft 359 kts 199°
2026-04-25 21:49 41.20610 -8.89224 13701 ft 363 kts 199°
2026-04-25 21:49 41.18197 -8.90107 14377 ft 368 kts 186°
2026-04-25 21:49 41.15631 -8.89815 15132 ft 368 kts 162°
2026-04-25 21:50 41.13255 -8.88545 15821 ft 371 kts 153°
2026-04-25 21:50 41.10954 -8.86956 16486 ft 374 kts 150°
2026-04-25 21:50 41.08644 -8.85309 17138 ft 378 kts 151°
2026-04-25 21:50 41.07055 -8.84215 17572 ft 381 kts 152°
2026-04-25 21:51 41.03881 -8.82155 18416 ft 386 kts 154°
2026-04-25 21:51 41.01414 -8.80639 19037 ft 390 kts 154°
2026-04-25 21:51 40.98957 -8.79169 19663 ft 393 kts 155°
2026-04-25 21:51 40.96454 -8.77688 20242 ft 397 kts 155°
2026-04-25 21:52 40.93907 -8.76188 20823 ft 400 kts 155°
2026-04-25 21:52 40.91347 -8.74681 21361 ft 405 kts 155°
2026-04-25 21:52 40.88836 -8.73202 21916 ft 407 kts 155°
2026-04-25 21:52 40.86200 -8.71648 22464 ft 411 kts 155°
2026-04-25 21:53 40.83585 -8.70107 23005 ft 414 kts 154°
2026-04-25 21:53 40.80952 -8.68555 23536 ft 417 kts 154°
2026-04-25 21:53 40.78308 -8.66997 24014 ft 421 kts 154°
2026-04-25 21:53 40.75604 -8.65404 24075 ft 424 kts 154°
2026-04-25 21:54 40.72903 -8.63816 24079 ft 420 kts 155°
2026-04-25 21:54 40.70199 -8.62314 24284 ft 427 kts 158°
2026-04-25 21:54 40.67374 -8.61063 24933 ft 427 kts 162°
2026-04-25 21:54 40.64464 -8.60062 25404 ft 431 kts 165°
2026-04-25 21:55 40.61530 -8.59207 25908 ft 433 kts 167°
2026-04-25 21:55 40.58559 -8.58402 26351 ft 437 kts 167°
2026-04-25 21:55 40.55570 -8.57609 26799 ft 440 kts 167°
2026-04-25 21:55 40.52591 -8.56818 27264 ft 442 kts 167°
2026-04-25 21:56 40.49539 -8.55999 27677 ft 445 kts 167°
2026-04-25 21:56 40.47504 -8.55448 27952 ft 447 kts 167°
2026-04-25 21:56 40.43385 -8.54323 28478 ft 452 kts 167°
2026-04-25 21:56 40.40296 -8.53472 28929 ft 453 kts 166°
2026-04-25 21:57 40.37152 -8.52601 29306 ft 457 kts 166°
2026-04-25 21:57 40.34066 -8.51744 29852 ft 455 kts 166°
2026-04-25 21:57 40.30967 -8.50882 30489 ft 452 kts 166°
2026-04-25 21:57 40.27867 -8.50018 30922 ft 453 kts 166°
2026-04-25 21:58 40.24809 -8.49166 31365 ft 453 kts 167°
2026-04-25 21:58 40.21725 -8.48306 31830 ft 452 kts 167°
2026-04-25 21:58 40.18636 -8.47445 32300 ft 452 kts 167°
2026-04-25 21:58 40.15532 -8.46582 32693 ft 452 kts 167°
2026-04-25 21:59 40.12453 -8.45728 33077 ft 453 kts 167°
2026-04-25 21:59 40.09383 -8.44877 33431 ft 454 kts 167°
2026-04-25 21:59 40.06293 -8.44020 33820 ft 454 kts 168°
2026-04-25 22:00 40.01108 -8.42583 34439 ft 454 kts 168°
2026-04-25 22:00 39.96990 -8.41443 34913 ft 453 kts 168°
2026-04-25 22:00 39.93911 -8.40592 35238 ft 453 kts 168°
2026-04-25 22:00 39.90814 -8.39737 35536 ft 453 kts 168°
2026-04-25 22:01 39.87752 -8.38893 35861 ft 452 kts 168°
2026-04-25 22:01 39.84702 -8.38052 36217 ft 450 kts 168°
2026-04-25 22:01 39.81619 -8.37203 36501 ft 450 kts 168°
2026-04-25 22:01 39.79565 -8.36637 36714 ft 450 kts 168°
2026-04-25 22:02 39.75467 -8.35511 37082 ft 451 kts 168°
2026-04-25 22:02 39.72409 -8.34671 37075 ft 453 kts 169°
2026-04-25 22:02 39.66272 -8.32987 37070 ft 450 kts 169°
2026-04-25 22:03 39.60122 -8.31303 37070 ft 450 kts 169°
2026-04-25 22:03 39.54002 -8.29632 37074 ft 451 kts 169°
2026-04-25 22:04 39.47837 -8.27951 37067 ft 452 kts 169°
2026-04-25 22:04 39.41632 -8.26262 37065 ft 453 kts 169°
2026-04-25 22:05 39.35482 -8.24591 37064 ft 453 kts 169°
2026-04-25 22:05 39.29328 -8.22923 37053 ft 454 kts 169°
2026-04-25 22:06 39.23111 -8.21239 37057 ft 454 kts 169°
2026-04-25 22:06 39.16930 -8.19568 37055 ft 454 kts 169°
2026-04-25 22:07 39.11751 -8.18171 37048 ft 454 kts 169°
2026-04-25 22:07 39.04501 -8.16218 37049 ft 454 kts 169°
2026-04-25 22:08 38.98305 -8.14552 37049 ft 454 kts 169°
2026-04-25 22:08 38.92107 -8.12889 37051 ft 455 kts 169°
2026-04-25 22:09 38.85887 -8.11224 37051 ft 455 kts 169°
2026-04-25 22:09 38.79673 -8.09562 37048 ft 455 kts 169°
2026-04-25 22:10 38.73463 -8.07906 37054 ft 455 kts 169°
2026-04-25 22:10 38.67234 -8.06246 37049 ft 456 kts 169°
2026-04-25 22:11 38.61017 -8.04593 37045 ft 456 kts 169°
2026-04-25 22:11 38.54827 -8.02950 37047 ft 456 kts 169°
2026-04-25 22:12 38.48609 -8.01301 37044 ft 456 kts 169°
2026-04-25 22:12 38.43410 -7.99925 37046 ft 456 kts 169°
2026-04-25 22:13 38.36114 -7.97999 37045 ft 457 kts 169°
2026-04-25 22:13 38.29868 -7.96352 37040 ft 456 kts 169°
2026-04-25 22:14 38.23641 -7.94714 37044 ft 458 kts 169°
2026-04-25 22:14 38.17374 -7.93069 37048 ft 458 kts 169°
2026-04-25 22:15 38.11068 -7.91415 37038 ft 457 kts 169°
2026-04-25 22:16 38.01671 -7.88956 37037 ft 458 kts 169°
2026-04-25 22:16 37.95419 -7.87324 37037 ft 458 kts 169°
2026-04-25 22:17 37.89108 -7.85679 37037 ft 457 kts 169°
2026-04-25 22:17 37.82836 -7.84048 37037 ft 459 kts 169°
2026-04-25 22:18 37.76554 -7.82416 37040 ft 457 kts 169°
2026-04-25 22:18 37.70292 -7.80793 37046 ft 458 kts 169°
2026-04-25 22:19 37.64054 -7.79178 37044 ft 458 kts 169°
2026-04-25 22:19 37.57737 -7.77546 37044 ft 459 kts 169°
2026-04-25 22:20 37.51429 -7.75919 37040 ft 458 kts 169°
2026-04-25 22:20 37.45149 -7.74302 37054 ft 459 kts 169°
2026-04-25 22:21 37.38876 -7.72691 37050 ft 458 kts 169°
2026-04-25 22:21 37.32604 -7.71083 37052 ft 460 kts 169°
2026-04-25 22:22 37.26315 -7.69471 37058 ft 458 kts 169°
2026-04-25 22:22 37.20048 -7.67869 37057 ft 458 kts 169°
2026-04-25 22:23 37.13777 -7.66268 37054 ft 459 kts 169°
2026-04-25 22:23 37.07520 -7.64674 37052 ft 458 kts 169°
2026-04-25 22:23 37.04351 -7.63868 36752 ft 466 kts 169°
2026-04-25 22:24 37.01197 -7.63067 36448 ft 467 kts 169°
2026-04-25 22:24 36.97984 -7.62252 36156 ft 466 kts 169°
2026-04-25 22:24 36.94814 -7.61448 35922 ft 467 kts 169°
2026-04-25 22:24 36.91603 -7.60634 35682 ft 468 kts 169°
2026-04-25 22:25 36.88409 -7.59824 35441 ft 469 kts 169°
2026-04-25 22:25 36.85194 -7.59009 35197 ft 469 kts 169°
2026-04-25 22:25 36.81977 -7.58195 34958 ft 470 kts 169°
2026-04-25 22:25 36.78781 -7.57387 34653 ft 471 kts 169°
2026-04-25 22:26 36.75557 -7.56572 34030 ft 472 kts 169°
2026-04-25 22:26 36.72333 -7.55758 33277 ft 473 kts 169°
2026-04-25 22:26 36.69118 -7.54948 32567 ft 472 kts 169°
2026-04-25 22:26 36.65906 -7.54139 32147 ft 465 kts 169°
2026-04-25 22:27 36.62796 -7.53357 31659 ft 460 kts 169°
2026-04-25 22:27 36.59656 -7.52568 31113 ft 456 kts 168°
2026-04-25 22:27 36.56570 -7.51793 30514 ft 454 kts 168°
2026-04-25 22:27 36.53498 -7.51021 30110 ft 448 kts 168°
2026-04-25 22:28 36.50435 -7.50252 29497 ft 447 kts 168°
2026-04-25 22:28 36.47375 -7.49485 28886 ft 445 kts 168°
2026-04-25 22:28 36.44342 -7.48726 28362 ft 441 kts 168°
2026-04-25 22:28 36.41352 -7.47979 27858 ft 437 kts 168°
2026-04-25 22:29 36.38413 -7.47244 27358 ft 433 kts 168°
2026-04-25 22:29 36.35474 -7.46509 26857 ft 429 kts 168°
2026-04-25 22:29 36.32525 -7.45771 26351 ft 425 kts 168°
2026-04-25 22:30 36.26812 -7.44345 25350 ft 417 kts 167°
2026-04-25 22:30 36.23990 -7.43642 24862 ft 413 kts 167°
2026-04-25 22:30 36.21184 -7.42943 24369 ft 409 kts 167°
2026-04-25 22:30 36.19329 -7.42481 24047 ft 407 kts 167°
2026-04-25 22:31 36.15641 -7.41564 23382 ft 402 kts 167°
2026-04-25 22:31 36.12902 -7.40883 22893 ft 399 kts 167°
2026-04-25 22:31 36.10233 -7.40071 22400 ft 395 kts 161°
2026-04-25 22:31 36.07735 -7.38786 21920 ft 389 kts 149°
2026-04-25 22:32 36.05524 -7.36887 21433 ft 383 kts 137°
2026-04-25 22:32 36.03673 -7.34586 20957 ft 378 kts 129°
2026-04-25 22:32 36.02075 -7.31997 20456 ft 374 kts 121°
2026-04-25 22:32 36.00876 -7.29184 19971 ft 368 kts 110°
2026-04-25 22:33 36.00064 -7.26208 19492 ft 364 kts 104°
2026-04-25 22:33 35.99409 -7.23203 19006 ft 361 kts 102°
2026-04-25 22:33 35.98830 -7.20228 18521 ft 358 kts 101°
2026-04-25 22:33 35.98271 -7.17238 18036 ft 356 kts 101°
2026-04-25 22:34 35.97716 -7.14316 17568 ft 353 kts 101°
2026-04-25 22:34 35.97138 -7.11365 17091 ft 351 kts 102°
2026-04-25 22:34 35.96556 -7.08473 16615 ft 349 kts 102°
2026-04-25 22:34 35.95966 -7.05582 16144 ft 347 kts 102°
2026-04-25 22:35 35.95376 -7.02722 15673 ft 344 kts 102°
2026-04-25 22:35 35.94783 -6.99856 15200 ft 342 kts 102°
2026-04-25 22:35 35.94204 -6.97059 14736 ft 340 kts 102°
2026-04-25 22:35 35.93620 -6.94247 14268 ft 338 kts 102°
2026-04-25 22:36 35.93044 -6.91468 13863 ft 333 kts 102°
2026-04-25 22:36 35.92475 -6.88734 13480 ft 325 kts 102°
2026-04-25 22:36 35.91920 -6.86063 12822 ft 321 kts 102°
2026-04-25 22:36 35.91373 -6.83432 12206 ft 317 kts 102°
2026-04-25 22:37 35.90826 -6.80797 11667 ft 318 kts 102°
2026-04-25 22:37 35.90277 -6.78162 11204 ft 316 kts 102°
2026-04-25 22:37 35.89733 -6.75553 10761 ft 314 kts 102°
2026-04-25 22:37 35.89194 -6.72969 10358 ft 310 kts 102°
2026-04-25 22:38 35.88662 -6.70430 10147 ft 299 kts 102°
2026-04-25 22:38 35.88154 -6.68012 9922 ft 291 kts 102°
2026-04-25 22:38 35.87650 -6.65604 9502 ft 290 kts 102°
2026-04-25 22:38 35.87148 -6.63207 9107 ft 288 kts 102°
2026-04-25 22:39 35.86648 -6.60826 8722 ft 286 kts 102°
2026-04-25 22:39 35.86153 -6.58470 8344 ft 284 kts 102°
2026-04-25 22:39 35.85659 -6.56120 7965 ft 281 kts 102°
2026-04-25 22:39 35.85177 -6.53832 7597 ft 279 kts 102°
2026-04-25 22:40 35.84687 -6.51514 7222 ft 277 kts 102°
2026-04-25 22:40 35.84205 -6.49228 6856 ft 275 kts 102°
2026-04-25 22:40 35.83723 -6.46951 6492 ft 272 kts 102°
2026-04-25 22:40 35.83256 -6.44721 6128 ft 270 kts 101°
2026-04-25 22:41 35.82836 -6.42481 5770 ft 268 kts 100°
2026-04-25 22:41 35.82450 -6.40250 5419 ft 265 kts 99°
2026-04-25 22:41 35.82072 -6.38045 5076 ft 262 kts 99°
2026-04-25 22:41 35.81696 -6.35878 4724 ft 260 kts 100°
2026-04-25 22:42 35.81308 -6.33684 4361 ft 257 kts 101°
2026-04-25 22:42 35.80934 -6.31586 4039 ft 245 kts 100°
2026-04-25 22:42 35.80574 -6.29591 3732 ft 234 kts 102°
2026-04-25 22:42 35.80110 -6.27732 3432 ft 223 kts 108°
2026-04-25 22:43 35.79534 -6.25986 3138 ft 213 kts 110°
2026-04-25 22:43 35.78971 -6.24358 2983 ft 197 kts 109°
2026-04-25 22:43 35.78468 -6.22867 2930 ft 180 kts 108°
2026-04-25 22:43 35.78000 -6.21437 2884 ft 177 kts 108°
2026-04-25 22:44 35.77541 -6.20023 2824 ft 178 kts 108°
2026-04-25 22:44 35.77081 -6.18621 2761 ft 177 kts 108°
2026-04-25 22:44 35.76888 -6.18030 2736 ft 176 kts 108°
2026-04-25 22:44 35.76478 -6.16781 2682 ft 176 kts 108°
2026-04-25 22:45 35.76026 -6.15378 2616 ft 177 kts 107°
2026-04-25 22:45 35.75658 -6.13927 2548 ft 175 kts 101°
2026-04-25 22:45 35.75406 -6.12473 2483 ft 174 kts 97°
2026-04-25 22:45 35.75243 -6.10978 2424 ft 175 kts 94°
2026-04-25 22:46 35.75124 -6.09488 2364 ft 174 kts 94°
2026-04-25 22:46 35.75006 -6.08016 2314 ft 173 kts 94°
2026-04-25 22:46 35.74886 -6.06524 2137 ft 175 kts 94°
2026-04-25 22:46 35.74768 -6.05072 1862 ft 163 kts 94°
2026-04-25 22:47 35.74657 -6.03742 1601 ft 146 kts 94°
2026-04-25 22:47 35.74546 -6.02536 1261 ft 137 kts 96°
2026-04-25 22:47 35.74336 -6.01420 1078 ft 130 kts 104°
2026-04-25 22:47 35.74023 -6.00344 1123 ft 132 kts 105°
2026-04-25 22:48 35.73806 -5.99254 908 ft 129 kts 95°
2026-04-25 22:48 35.73721 -5.98150 714 ft 129 kts 93°
2026-04-25 22:48 35.73607 -5.97046 619 ft 135 kts 95°
2026-04-25 22:48 35.73505 -5.95847 445 ft 141 kts 93°
2026-04-25 22:49 35.73398 -5.94652 229 ft 142 kts 93°
2026-04-25 22:49 35.73287 -5.93438 70 ft 133 kts 94°
2026-04-25 22:49 35.73206 -5.92566 70 ft 75 kts 97°
2026-04-25 22:49 35.73164 -5.92122 70 ft 34 kts 97°
2026-04-25 22:50 35.73140 -5.91856 70 ft 29 kts 102°
2026-04-25 22:50 35.72998 -5.91732 70 ft 23 kts 174°
2026-04-25 22:50 35.72843 -5.91716 70 ft 21 kts 176°
2026-04-25 22:50 35.72693 -5.91702 70 ft 20 kts 175°
2026-04-25 22:51 35.72553 -5.91691 70 ft 19 kts 175°
2026-04-25 22:51 35.72441 -5.91617 70 ft 18 kts 120°
2026-04-25 22:51 35.72432 -5.91465 70 ft 17 kts 87°
2026-04-25 22:51 35.72439 -5.91320 70 ft 16 kts 85°
2026-04-25 22:52 35.72446 -5.91195 70 ft 12 kts 86°
2026-04-25 22:52 35.72479 -5.91126 70 ft 8 kts
2026-04-25 22:52 35.72524 -5.91131 70 ft 4 kts 355°
2026-04-25 22:52 35.72539 -5.91132 70 ft 2 kts 355°
2026-04-25 22:53 35.72546 -5.91133 70 ft 0 kts 356°